Friday Harbor, WA
on Wednesday, December 12, 2012

Wednesday
Previous Day Next Day
Daily Summary
 ActualAverageRecord
Temperature
Mean Temperature °F °F  
Max Temperature 44°F 44°F 55°F (2002)
Min Temperature 39°F 36°F 19°F (2000)
Degree Days
Heating Degree Days 24    
Moisture
Dew Point 38°F   
Average Humidity 86    
Maximum Humidity 100    
Minimum Humidity 76    
Precipitation
Precipitation 0.03 in in in ()
Wind
Wind Speed 3 mph   
Max Wind Speed 8 mph   
Max Gust Speed mph   
Visibility 10 miles   
Events Rain   
Averages and records for this station are not official NWS values.
Key: T is trace of precipitation, MM is missing value
Source: NWS Daily Summary
Seasonal Weather Averages
Time(PST)TemperatureDew PointHumidity Pressure Visibility Wind DirectionWind SpeedGust SpeedPrecipitationEvents Conditions
12:17 AM 42.8°F 42.8°F 100% 29.61 in 10.0 miles Variable 4.6 mph - N/A   Overcast
12:36 AM 42.8°F 41.0°F 93% 29.61 in 10.0 miles Calm Calm - N/A   Overcast
12:53 AM 43.0°F 41.0°F 93% 29.62 in 10.0 miles Calm Calm - 0.00 in Rain Light Rain
1:11 AM 42.8°F 39.2°F 87% 29.62 in 10.0 miles Variable 4.6 mph - 0.00 in   Overcast
1:44 AM 42.8°F 39.2°F 87% 29.63 in 10.0 miles Calm Calm - 0.00 in   Overcast
1:53 AM 42.1°F 39.9°F 92% 29.63 in 10.0 miles Calm Calm - 0.00 in   Mostly Cloudy
2:53 AM 41.0°F 39.0°F 93% 29.65 in 10.0 miles Calm Calm - N/A   Mostly Cloudy
3:37 AM 42.8°F 39.2°F 87% 29.66 in 10.0 miles Calm Calm - N/A   Overcast
3:53 AM 42.1°F 39.9°F 92% 29.67 in 10.0 miles Calm Calm - N/A   Overcast
4:27 AM 42.8°F 39.2°F 87% 29.68 in 10.0 miles Calm Calm - N/A   Overcast
4:41 AM 42.8°F 39.2°F 87% 29.69 in 8.0 miles Calm Calm - N/A   Overcast
4:53 AM 42.1°F 39.9°F 92% 29.69 in 10.0 miles Calm Calm - N/A   Overcast
5:11 AM 42.8°F 39.2°F 87% 29.70 in 4.0 miles Variable 4.6 mph - 0.01 in Rain Light Rain
5:53 AM 41.0°F 39.0°F 93% 29.71 in 5.0 miles Variable 5.8 mph - 0.03 in Rain Light Rain
6:00 AM 41.0°F 39.2°F 93% 29.71 in 6.0 miles Variable 5.8 mph - 0.00 in   Overcast
6:02 AM 41.0°F 39.2°F 93% 29.71 in 6.0 miles NNW 4.6 mph - 0.00 in   Overcast
6:09 AM 41.0°F 39.2°F 93% 29.71 in 8.0 miles Variable 3.5 mph - 0.00 in   Overcast
6:25 AM 41.0°F 39.2°F 93% 29.72 in 10.0 miles Variable 3.5 mph - 0.00 in   Overcast
6:53 AM 41.0°F 39.0°F 93% 29.73 in 10.0 miles NNW 5.8 mph - 0.00 in   Overcast
7:20 AM 42.8°F 39.2°F 87% 29.74 in 10.0 miles Variable 3.5 mph - N/A   Overcast
7:50 AM 42.8°F 39.2°F 87% 29.75 in 10.0 miles Variable 4.6 mph - N/A   Overcast
7:53 AM 41.0°F 39.0°F 93% 29.75 in 10.0 miles Variable 3.5 mph - N/A   Overcast
8:53 AM 42.1°F 37.9°F 85% 29.79 in 10.0 miles Variable 6.9 mph - N/A   Overcast
9:53 AM 42.1°F 37.9°F 85% 29.83 in 10.0 miles Variable 4.6 mph - N/A   Overcast
10:53 AM 42.1°F 37.9°F 85% 29.85 in 10.0 miles Calm Calm - N/A   Overcast
11:34 AM 42.8°F 37.4°F 81% 29.85 in 10.0 miles North 5.8 mph - N/A   Overcast
11:53 AM 43.0°F 37.0°F 80% 29.86 in 10.0 miles NNW 8.1 mph - N/A   Overcast
12:05 PM 42.8°F 37.4°F 81% 29.86 in 10.0 miles Variable 5.8 mph - N/A   Overcast
12:53 PM 43.0°F 37.0°F 80% 29.88 in 10.0 miles North 4.6 mph - N/A   Overcast
1:13 PM 44.6°F 37.4°F 76% 29.88 in 10.0 miles Variable 5.8 mph - N/A   Overcast
1:53 PM 43.0°F 37.0°F 80% 29.88 in 10.0 miles NNW 4.6 mph - N/A   Mostly Cloudy
2:53 PM 44.1°F 37.0°F 76% 29.90 in 10.0 miles NNW 3.5 mph - N/A   Clear
3:49 PM 42.8°F 37.4°F 81% 29.92 in 10.0 miles Variable 3.5 mph - N/A   Mostly Cloudy
3:53 PM 42.1°F 36.0°F 79% 29.93 in 10.0 miles Calm Calm - N/A   Scattered Clouds
4:40 PM 41.0°F 35.6°F 81% 29.94 in 10.0 miles Variable 3.5 mph - N/A   Mostly Cloudy
4:53 PM 42.1°F 36.0°F 79% 29.95 in 10.0 miles NNW 4.6 mph - N/A   Mostly Cloudy
5:15 PM 41.0°F 35.6°F 81% 29.95 in 10.0 miles North 4.6 mph - N/A   Scattered Clouds
5:51 PM 42.8°F 35.6°F 76% 29.96 in 10.0 miles NNW 3.5 mph - N/A   Mostly Cloudy
5:53 PM 42.1°F 36.0°F 79% 29.96 in 10.0 miles NW 3.5 mph - N/A   Mostly Cloudy
6:53 PM 42.1°F 36.0°F 79% 29.97 in 10.0 miles Variable 3.5 mph - N/A   Overcast
7:53 PM 41.0°F 37.0°F 86% 29.99 in 10.0 miles Calm Calm - N/A   Overcast
8:53 PM 39.9°F 37.0°F 89% 30.00 in 10.0 miles Calm Calm - N/A   Overcast
9:53 PM 41.0°F 37.0°F 86% 30.03 in 10.0 miles Calm Calm - N/A   Overcast
10:53 PM 41.0°F 37.0°F 86% 30.04 in 10.0 miles Calm Calm - N/A   Overcast
11:53 PM 42.1°F 37.0°F 82% 30.03 in 10.0 miles Calm Calm - N/A   Overcast
Moon Phase
Dec. 12 Dec. 13 Dec. 20 Dec. 28 Jan. 04
Sunrise:07:55 AM (PST) Moon Rise:07:04 AM (PST)12/12
Sunset:04:16 PM (PST) Moon Set:04:00 PM (PST)12/12

Copyright © 2014 The Weather Underground, Inc.